Regional Weather Roundup
Issued by NWS

Home | Current Version | Previous Version | Text Only | Print | Product List | Glossary On
Versions: 1 2 3 4 5 6 7 8 9 10 11 12 13 14 15 16 17 18 19 20 21 22 23 24 25 26 27 28 29 30 31 32 33 34 35 36 37 38 39 40 41 42 43 44 45 46 47 48 49 50
000
ASUS44 KEWX 081711
RWRTX
SOUTH TEXAS REGIONAL WEATHER ROUNDUP
NATIONAL WEATHER SERVICE AUSTIN/SAN ANTONIO TX
1100 AM CST THU DEC 08 2016

NOTE: "FAIR" INDICATED FEW OR NO CLOUDS BELOW 12,000 FEET WITH NO
SIGNIFICANT WEATHER AND/OR OBSTRUCTIONS TO VISIBILITY.

* - THESE STATIONS ARE NOT NWS OR FAA STATIONS...AND ARE NOT SUBJECT
    TO NWS AND FAA QUALITY CONTROL.

TXZ171-172-183>190-081800-
TEXAS HILL COUNTRY AND EDWARDS PLATEAU

CITY           SKY/WX    TMP DP  RH WIND       PRES   REMARKS
JUNCTION       PTSUNNY   36  26  67 NE20G29   30.55R WCI  25
*LLANO         CLOUDY   N/A N/A N/A N16G23    30.61F
BURNET         CLOUDY    37  25  61 N16G25    30.57R WCI  28
*HORSESHOE BAY CLOUDY    40  28  63 NE12G22   30.56S WCI  32
*KERRVILLE     CLOUDY    38  28  67 N25G32    30.47F WCI  26
*FREDERICKSBRG CLOUDY    37  25  63 N22G31    30.50F WCI  25
*ROCKSPRINGS   PTSUNNY   36  28  75 NE16G28   30.47S WCI  26
*BOERNE STAGE  CLOUDY    37  28  70 N23G33    30.45F WCI  26
*CASTROVILLE   CLOUDY    44  29  57 N17G23    30.49R WCI  36
HONDO          CLOUDY    45  29  53 NE22G29   30.48R WCI  37
*UVALDE        CLOUDY    43  33  65 NE13G22   30.50R WCI  37
DEL RIO        CLOUDY    43  31  62 N9G18     30.53R WCI  38
LAUGHLIN AFB   CLOUDY    42  37  82 N16       30.52R WCI  35
CARRIZO SPRGS  CLOUDY    45  37  76 N9        30.49R WCI  40
*EAGLE PASS    CLOUDY    46  36  66 N7G15     30.51R WCI  43
$$

TXZ173-191>194-202-209-217>225-228-081800-
CENTRAL AND SOUTH CENTRAL TEXAS

CITY           SKY/WX    TMP DP  RH WIND       PRES   REMARKS
GEORGETOWN     CLOUDY    39  27  60 N20G28    30.56R WCI  30
AUSTIN/BERGSTM CLOUDY    43  30  60 N26G38    30.51R WCI  33
AUSTIN/MABRY   CLOUDY    41  29  62 NE12G32   30.55R WCI  34
*AUSTIN/EXEC   CLOUDY    39  30  70 N24G31    30.55R WCI  28
*LAGO VISTA    CLOUDY    38  29  69 NE16G29   30.54R WCI  30
SAN MARCOS     MOSUNNY   43  30  61 N29G40    30.50R WCI  32
NEW BRAUNFELS  MOSUNNY   47  29  49 N30G38    30.46R WCI  38
RANDOLPH AFB   PTSUNNY   45  30  55 N18       30.46R WCI  37
PT SAN ANTONIO CLOUDY    45  29  55 N21G28    30.44R WCI  36
SAN ANTONIO    PTSUNNY   44  28  53 N22G35    30.46R WCI  35
STINSON FIELD  CLOUDY    46  30  53 N18G25    30.45R WCI  39
*PLEASANTON    CLOUDY    45  32  61 N12G24    30.47R WCI  39
*LA GRANGE     CLOUDY    44  36  73 N12G24    30.46F WCI  38
*GIDDINGS      CLOUDY    42  32  69 N13G22    30.53R WCI  35
*GONZALES      CLOUDY    46  34  63 N22G32    30.44F WCI  37
$$

TXZ163>164-176>182-195>201-210>213-226-227-235-081800-
SOUTHEAST TEXAS

CITY           SKY/WX    TMP DP  RH WIND       PRES   REMARKS
COLLEGE STN    CLOUDY    43  35  73 N21G28    30.51S WCI  34
*BRYAN         NOT AVBL
*CALDWELL      NOT AVBL
*CROCKETT      CLOUDY    41  32  70 NE16      30.55F WCI  33
*BRENHAM       CLOUDY    46  39  77 N22G29    30.48S WCI  38
HUNTSVILLE     CLOUDY    43  32  65 VRB7      30.50R WCI  39
CONROE         CLOUDY    44  39  82 N15G28    30.47R WCI  37
HOUSTON BUSH   CLOUDY    47  40  76 N22       30.44R WCI  39
HOUSTON HOBBY  CLOUDY    48  42  80 N23       30.41S WCI  40
*HOUSTON SW AP CLOUDY    47  43  85 N12G20    30.42S WCI  42
PEARLAND       CLOUDY    49  42  77 N18G29    30.41R WCI  42
HOUSTON HOOKS  CLOUDY    46  40  79 N10G24    30.45R WCI  41
ELLINGTON FLD  CLOUDY    48  46  93 N16G28    30.42R WCI  42
SUGAR LAND     CLOUDY    48  43  82 N18G26    30.41R WCI  41
*HOUSTON EXEC    N/A     46  41  81 N21       30.45R WCI  39
*CLEVELAND MUN CLOUDY    45  41  86 N12G22    30.47R WCI  39
*WHARTON       CLOUDY    48  41  77 N17G29    30.42R WCI  41
*COLUMBUS      CLOUDY    45  38  79 N16G24    30.45S WCI  37
*EAGLE LAKE    CLOUDY    47  43  87 N24G35    30.43F WCI  39
$$

TXZ214>216-236>238-081800-
THE UPPER TEXAS COAST

CITY           SKY/WX    TMP DP  RH WIND       PRES   REMARKS
*ORANGE        CLOUDY    46  46  99 NE14G21   30.42S WCI  40
PORT ARTHUR    CLOUDY    47  43  86 N17G28    30.39R WCI  40
GALVESTON      CLOUDY    51  48  89 N25G36    30.38R
ANGLETON       CLOUDY    50  44  80 MISG      30.38R
*BAY CITY      CLOUDY    50  46  85 N17G26    30.38S WCI  44
PALACIOS       CLOUDY    48  44  86 N26G35    30.37R WCI  40
$$

TXZ229>234-239>247-081800-
TEXAS COASTAL BEND AND RIO GRANDE PLAINS

CITY           SKY/WX    TMP DP  RH WIND       PRES   REMARKS
VICTORIA       CLOUDY    46  40  79 N26G35    30.40S WCI  37
*BEEVILLE      CLOUDY    46  40  78 N21G31    30.39S WCI  38
ROCKPORT         N/A    N/A N/A N/A MISG      30.35R
*PORT ARANSAS  CLOUDY    51  47  85 N30G37    30.34R
*PORT LAVACA   CLOUDY    48  46  91 N20G37    30.38R WCI  41
*INGLESIDE     CLOUDY    53  47  81 N24G31    30.34R
CORPUS CHRISTI LGT RAIN  50  46  86 N24G31    30.36R WCI  43
CORPUS NAS     CLOUDY    50  48  93 N35       30.34R WCI  41
*ROBSTOWN      RAIN      49  47  95 N17G30    30.38R WCI  42
ALICE          HVY RAIN  46  44  93 N23G33    30.38S FOG     WCI  38
KINGSVILLE NAS LGT RAIN  49  48  97 N21G35      N/A  FOG     WCI  42
COTULLA        CLOUDY    49  38  65 N13       30.47R WCI  44
*FAITH RANCH   CLOUDY    46  43  87 N14       30.48R WCI  40
LAREDO         LGT RAIN  49  44  83 N16G24    30.44R WCI  43
$$

TXZ248>255-081800-
DEEP SOUTH TEXAS

CITY           SKY/WX    TMP DP  RH WIND       PRES   REMARKS
BROWNSVILLE    HVY RAIN  63  62  97 NW13      30.24R FOG
PORT ISABEL    LGT RAIN  64  62  93 N23G30    30.22R FOG
*SOUTH PADRE     N/A     66  64  94 NE31G37   30.19S VSB 1/2
HARLINGEN      RAIN      57  57 100 N23       30.25R FOG
*HEBBRONVILLE  LGT RAIN  46  44  93 N16G23    30.38R WCI  40
MCALLEN        LGT RAIN  56  52  86 N16       30.33R FOG
*WESLACO       DRIZZLE   55  52  88 N17       30.30R
FALFURRIAS     CLOUDY    51  48  90 N15G23    30.35R
EDINBURG       RAIN      56  51  83 N17       30.33R
*ZAPATA        LGT RAIN  49  49  97 NW16G23   30.41R WCI  44
$$

TXZ213>215-236>238-242>244-246-247-251-254-255-081800-
CMAN STATIONS

STATION/POSITION TIME  TEMP    WIND        PRES    WAVE
                       AIR SEA DIR/SP/G            HT/PER
                 (UTC) (F)     (DEG/KT/KT) (MB)    (FT/S)
SABINE PASS      1648   49 60   10/ 19/ 24 1030.2
SEA RIM ST PARK  1600   50      20/ 21/ 26 1028.9
NORTH JETTY/GLS  1648   49 60   10/ 27/ 32   N/A
EAGLE POINT      1648   48 58   30/ 19/ 25 1029.3
MORGANS POINT    1648   48 60   20/ 16/ 21 1029.7
PORT O`CONNOR    1642   51     360/ 28/ 35 1027.7
PORT ARANSAS     1600   53 63   10/ 30/ 33 1025.6
MALAQUITE BEACH  1648   54 64  360/ 27/ 32 1026.4
BAFFIN BAY       1648   54 61  360/ 22/ 29 1027.0
PORT ISABEL      1648   66 71   10/ 18/ 22 1021.9
$$

GMZ080-GMZ150>470-081800-
OFFSHORE BUOY REPORTS

STATION/POSITION TIME  TEMP    WIND        PRES    WAVE
                       AIR SEA DIR/SP/G            HT/PER
                 (UTC) (F)     (DEG/KT/KT) (MB)    (FT/S)
20 E GALVESTON   1650   53 65  360/ 27/ 33 1027.0    7/ 6
90 E PT ARANSAS  1650   63 77   20/ 31/ 37 1023.6   12/ 8
35 NE PT MANSFLD 1650   66 76   30/ 31/ 39 1022.1   14/ 8
200 E PT ISABEL  1650   75 77   80/ 16/ 19 1018.9    4/ 6
$$




USA.gov is the U.S. government's official web portal to all federal, state and local government web resources and services.